Spearman, TX

5:26 AM CDT on August 28, 2016 (GMT -0500)
Pampa / Mesa Vista

Weather History for KBPC - December, 2013

Change the Weather History Date:

Monday, December 9, 2013

  Actual Average (KBGD) Record (KBGD)
Temperature  
Mean Temperature 16 °F 39 °F  
Max Temperature 24 °F 51 °F 79 °F (1996)
Min Temperature 8 °F 28 °F -1 °F (1978)
Degree Days  
Heating Degree Days 49 26  
Month to date heating degree days 219  
Since 1 July heating degree days 936  
Cooling Degree Days 0 0  
Month to date cooling degree days 0  
Year to date cooling degree days 1839  
Moisture  
Dew Point 9 °F    
Average Humidity 67    
Maximum Humidity 85    
Minimum Humidity 50    
Precipitation  
Precipitation 0.00 in 0.01 in 0.19 in (2007)
Month to date precipitation 0.16  
Year to date precipitation 21.11  
Snow  
Snow 0.00 in - - ()
Month to date snowfall  
Since 1 July snowfall  
Snow Depth -    
Sea Level Pressure  
Sea Level Pressure 30.23 in    
Wind  
Wind Speed 6 mph (NNE)    
Max Wind Speed 12 mph    
Max Gust Speed -    
Visibility 10 miles    
Events      
T = Trace of Precipitation, MM = Missing Value Source: NWS Daily Summary

Daily Weather History Graph

Daily Weather History Graph

Search for Another Location

Airport or City:

Trip Planner

Search our weather history database for the weather conditions in past years. The results will help you decide how hot, cold, wet, or windy it might be!

Date:

Astronomy

Dec. 09, 2013 Rise Set
Actual Time 7:42 AM CST 5:30 PM CST
Civil Twilight 7:14 AM CST 5:58 PM CST
Nautical Twilight 6:42 AM CST 6:30 PM CST
Astronomical Twilight 6:11 AM CST 7:01 PM CST
Moon 12:48 PM CST (12/9) 12:11 AM CST (12/9)
Length of Visible Light 10h 44m
Length of Day
9h 47m
Waxing Crescent, 51% of the Moon is Illuminated
Dec 9
Waxing Crescent
Dec 17
Full
Dec 25
Last Quarter
Jan 1
New
Jan 7
First Quarter

Hourly Weather History & Observations

Time (CST) Temp. Windchill Dew Point Humidity Pressure Visibility Wind Dir Wind Speed Gust Speed Precip Events Conditions
12:15 AM 19.4 °F 11.5 °F 14.0 °F 80% 30.14 in 10.0 mi North 5.8 mph - N/A   Mostly Cloudy
12:35 AM 19.4 °F 9.5 °F 14.0 °F 80% 30.14 in 10.0 mi NNE 8.1 mph - N/A   Overcast
12:55 AM 19.4 °F 9.5 °F 14.0 °F 80% 30.13 in 10.0 mi NNE 8.1 mph - N/A   Overcast
1:15 AM 19.4 °F 8.6 °F 14.0 °F 80% 30.12 in 10.0 mi NNE 9.2 mph - N/A   Scattered Clouds
1:35 AM 19.4 °F 11.5 °F 14.0 °F 80% 30.13 in 10.0 mi NNE 5.8 mph - N/A   Mostly Cloudy
1:55 AM 19.4 °F 10.4 °F 12.2 °F 74% 30.14 in 10.0 mi NNE 6.9 mph - N/A   Overcast
2:15 AM 19.4 °F 10.4 °F 12.2 °F 74% 30.14 in 10.0 mi NE 6.9 mph - N/A   Overcast
2:35 AM 19.4 °F 11.5 °F 10.4 °F 68% 30.15 in 10.0 mi NNE 5.8 mph - N/A   Scattered Clouds
2:55 AM 19.4 °F 14.3 °F 12.2 °F 74% 30.17 in 10.0 mi NNE 3.5 mph - N/A   Scattered Clouds
3:15 AM 19.4 °F 12.8 °F 12.2 °F 74% 30.17 in 10.0 mi NNE 4.6 mph - N/A   Overcast
3:35 AM 19.4 °F 10.4 °F 10.4 °F 68% 30.17 in 10.0 mi NNE 6.9 mph - N/A   Overcast
3:55 AM 19.4 °F 9.5 °F 10.4 °F 68% 30.17 in 10.0 mi NNE 8.1 mph - N/A   Overcast
4:35 AM 19.4 °F 10.4 °F 10.4 °F 68% 30.17 in 10.0 mi NE 6.9 mph - N/A   Clear
4:55 AM 19.4 °F 9.5 °F 10.4 °F 68% 30.17 in 10.0 mi NNE 8.1 mph - N/A   Clear
5:15 AM 19.4 °F 9.5 °F 10.4 °F 68% 30.18 in 10.0 mi NE 8.1 mph - N/A   Clear
5:35 AM 19.4 °F 9.5 °F 8.6 °F 63% 30.19 in 10.0 mi NNE 8.1 mph - N/A   Clear
5:55 AM 19.4 °F 8.6 °F 8.6 °F 63% 30.20 in 10.0 mi NNE 9.2 mph - N/A   Scattered Clouds
6:15 AM 19.4 °F 8.6 °F 8.6 °F 63% 30.20 in 10.0 mi NNE 9.2 mph - N/A   Clear
6:35 AM 19.4 °F 9.5 °F 8.6 °F 63% 30.20 in 10.0 mi NE 8.1 mph - N/A   Clear
6:55 AM 19.4 °F 9.5 °F 8.6 °F 63% 30.21 in 10.0 mi NE 8.1 mph - N/A   Clear
7:15 AM 19.4 °F 7.2 °F 8.6 °F 63% 30.21 in 10.0 mi NE 11.5 mph - N/A   Scattered Clouds
7:35 AM 19.4 °F 8.6 °F 8.6 °F 63% 30.22 in 10.0 mi NE 9.2 mph - N/A   Clear
7:55 AM 19.4 °F 9.5 °F 8.6 °F 63% 30.22 in 10.0 mi NNE 8.1 mph - N/A   Clear
8:15 AM 19.4 °F 7.2 °F 8.6 °F 63% 30.23 in 10.0 mi NE 11.5 mph - N/A   Clear
8:35 AM 19.4 °F 9.5 °F 8.6 °F 63% 30.23 in 10.0 mi NE 8.1 mph - N/A   Clear
8:55 AM 19.4 °F 8.6 °F 8.6 °F 63% 30.24 in 10.0 mi NE 9.2 mph - N/A   Scattered Clouds
9:15 AM 19.4 °F 9.5 °F 8.6 °F 63% 30.25 in 10.0 mi ENE 8.1 mph - N/A   Mostly Cloudy
9:35 AM 19.4 °F 8.6 °F 10.4 °F 68% 30.25 in 10.0 mi NE 9.2 mph - N/A   Mostly Cloudy
9:55 AM 19.4 °F 10.4 °F 12.2 °F 74% 30.26 in 10.0 mi NNE 6.9 mph - N/A   Mostly Cloudy
10:15 AM 19.4 °F 9.5 °F 12.2 °F 74% 30.26 in 10.0 mi NE 8.1 mph - N/A   Mostly Cloudy
10:35 AM 21.2 °F 12.6 °F 12.2 °F 68% 30.26 in 10.0 mi NNE 6.9 mph - N/A   Mostly Cloudy
10:55 AM 19.4 °F 11.5 °F 12.2 °F 74% 30.27 in 10.0 mi NNE 5.8 mph - N/A   Overcast
11:15 AM 21.2 °F 12.6 °F 10.4 °F 63% 30.27 in 10.0 mi North 6.9 mph - N/A   Mostly Cloudy
11:35 AM 21.2 °F 12.6 °F 10.4 °F 63% 30.26 in 10.0 mi North 6.9 mph - N/A   Mostly Cloudy
11:55 AM 21.2 °F 13.6 °F 10.4 °F 63% 30.26 in 10.0 mi NNE 5.8 mph - N/A   Overcast
12:15 PM 21.2 °F 14.9 °F 10.4 °F 63% 30.25 in 10.0 mi North 4.6 mph - N/A   Mostly Cloudy
12:35 PM 21.2 °F 13.6 °F 10.4 °F 63% 30.24 in 10.0 mi NNE 5.8 mph - N/A   Mostly Cloudy
12:55 PM 23.0 °F 13.9 °F 10.4 °F 59% 30.23 in 10.0 mi North 8.1 mph - N/A   Scattered Clouds
1:15 PM 23.0 °F 14.7 °F 10.4 °F 59% 30.23 in 10.0 mi North 6.9 mph - N/A   Scattered Clouds
1:35 PM 21.2 °F 12.6 °F 8.6 °F 58% 30.20 in 10.0 mi NNE 6.9 mph - N/A   Mostly Cloudy
1:55 PM 23.0 °F - 8.6 °F 54% 30.20 in 10.0 mi Calm Calm - N/A   Mostly Cloudy
2:15 PM 23.0 °F 17.0 °F 8.6 °F 54% 30.20 in 10.0 mi North 4.6 mph - N/A   Mostly Cloudy
2:35 PM 23.0 °F 17.0 °F 8.6 °F 54% 30.20 in 10.0 mi NNW 4.6 mph - N/A   Mostly Cloudy
2:55 PM 23.0 °F 18.4 °F 8.6 °F 54% 30.21 in 10.0 mi NNW 3.5 mph - N/A   Mostly Cloudy
3:15 PM 23.0 °F 18.4 °F 8.6 °F 54% 30.19 in 10.0 mi ENE 3.5 mph - N/A   Mostly Cloudy
3:35 PM 23.0 °F 18.4 °F 8.6 °F 54% 30.20 in 10.0 mi NNE 3.5 mph - N/A   Scattered Clouds
3:55 PM 23.0 °F - 8.6 °F 54% 30.21 in 10.0 mi Calm Calm - N/A   Scattered Clouds
4:15 PM 24.8 °F 20.5 °F 8.6 °F 50% 30.22 in 10.0 mi West 3.5 mph - N/A   Scattered Clouds
4:35 PM 23.0 °F - 8.6 °F 54% 30.22 in 10.0 mi Calm Calm - N/A   Clear
4:55 PM 23.0 °F - 8.6 °F 54% 30.22 in 10.0 mi Calm Calm - N/A   Clear
5:15 PM 23.0 °F 18.4 °F 8.6 °F 54% 30.23 in 10.0 mi NNW 3.5 mph - N/A   Clear
5:35 PM 21.2 °F - 6.8 °F 54% 30.25 in 10.0 mi Calm Calm - N/A   Clear
5:55 PM 21.2 °F - 6.8 °F 54% 30.24 in 10.0 mi Calm Calm - N/A   Clear
6:15 PM 19.4 °F - 6.8 °F 58% 30.24 in 10.0 mi Calm Calm - N/A   Clear
6:35 PM 17.6 °F - 6.8 °F 63% 30.26 in 10.0 mi Calm Calm - N/A   Clear
6:55 PM 17.6 °F 12.3 °F 6.8 °F 63% 30.26 in 10.0 mi East 3.5 mph - N/A   Clear
7:15 PM 14.0 °F 6.5 °F 5.0 °F 67% 30.26 in 10.0 mi SSE 4.6 mph - N/A   Clear
7:35 PM 15.8 °F 8.6 °F 6.8 °F 68% 30.27 in 10.0 mi ESE 4.6 mph - N/A   Clear
7:55 PM 12.2 °F 6.1 °F 5.0 °F 73% 30.27 in 10.0 mi South 3.5 mph - N/A   Clear
8:15 PM 12.2 °F 4.3 °F 5.0 °F 73% 30.28 in 10.0 mi SE 4.6 mph - N/A   Clear
8:35 PM 12.2 °F 2.9 °F 5.0 °F 73% 30.29 in 10.0 mi South 5.8 mph - N/A   Clear
8:55 PM 10.4 °F -0.4 °F 5.0 °F 79% 30.29 in 10.0 mi SSW 6.9 mph - N/A   Clear
9:15 PM 10.4 °F 0.8 °F 5.0 °F 79% 30.30 in 10.0 mi SW 5.8 mph - N/A   Clear
9:35 PM 8.6 °F - 3.2 °F 79% 30.30 in 10.0 mi Calm Calm - N/A   Clear
9:55 PM 8.6 °F -5.5 °F 5.0 °F 85% 30.30 in 10.0 mi WSW 10.4 mph - N/A   Clear
10:15 PM 10.4 °F 4.0 °F 5.0 °F 79% 30.32 in 10.0 mi East 3.5 mph - N/A   Clear
10:35 PM 10.4 °F 2.2 °F 5.0 °F 79% 30.31 in 10.0 mi SSW 4.6 mph - N/A   Clear
10:55 PM 10.4 °F -0.4 °F 5.0 °F 79% 30.32 in 10.0 mi WSW 6.9 mph - N/A   Clear
11:15 PM 10.4 °F 2.2 °F 5.0 °F 79% 30.32 in 10.0 mi SW 4.6 mph - N/A   Clear
11:35 PM 10.4 °F -1.5 °F 5.0 °F 79% 30.32 in 10.0 mi SW 8.1 mph - N/A   Clear
11:55 PM 10.4 °F -2.4 °F 6.8 °F 85% 30.32 in 10.0 mi WSW 9.2 mph - N/A   Clear